Tracking 35331 objects as of 16-Sep-2026
HD Live streaming from Space Station
objects crossing your sky now

HEAD-3C

Track HEAD-3C now!
10-day predictions


NORAD ID: 57628
Int'l Code: 2023-121C
Launch date: August 14, 2023
Source: People's Republic of China (PRC)
Launch site: Xichang Space Center, China (XSC)
Your satellite tracking list
Your tracking list is empty




NASA's NSSDC Master Catalog

Two Line Element Set (TLE):
1 57628U 23121C   26258.56406141  .00000475  00000-0  12486-3 0  9997
2 57628  44.9976 213.7237 0006534   9.1061 350.9914 14.62373484164968
Source of the keplerian elements: AFSPC